Wind from 247

Air temperature 2.2° C
Dewpoint -2.7° C

Last reported at 2014-Apr-25 05:46 UTC.
Time now 2014-Apr-25 06:08 UTC

Location: N 67°16' E 015°25'.
View on Google Maps.

See reports from other nearby stations

Tides Stations Pressure Air Temp Water Temp Dewpoint Dewpoint depression Visibility Wind Speed Wind Dir Waves Ship positions

  
sailing weather and tide predictions

DW1549 Fauske NO weather

date/time (UTC)wind fromknots sea level pressurealtimeterstation pressurevisibilityair tempwater tempwave heightnotes
2014-Apr-25 05:46 247 2.2
2014-Apr-25 05:36 247 1.7
2014-Apr-25 05:26 247 1.7
2014-Apr-25 05:16 247 1.7
2014-Apr-25 05:06 247 1.1
2014-Apr-25 04:56 247 1.1
2014-Apr-25 04:46 247 1.1
2014-Apr-25 04:36 247 1.1
2014-Apr-25 04:26 247 1.1
2014-Apr-25 04:16 247 1.1
2014-Apr-25 04:06 247 1.1
2014-Apr-25 03:56 247 1.1
2014-Apr-25 03:46 247 1.1
2014-Apr-25 03:36 247 0.6
2014-Apr-25 03:26 247 0 gusting 2 0.6
2014-Apr-25 03:16 249 0.6
2014-Apr-25 03:06 248 0.6
2014-Apr-25 02:56 249 0.6
2014-Apr-25 02:46 250 0.6
2014-Apr-25 02:36 251 0.6
2014-Apr-25 02:26 251 -0.0
2014-Apr-25 02:16 251 -0.0
2014-Apr-25 02:06 251 -0.0
2014-Apr-25 01:56 251 -0.0
2014-Apr-25 01:46 251 -0.0
2014-Apr-25 01:36 251 -0.0
2014-Apr-25 01:26 251 -0.0
2014-Apr-25 01:16 251 -0.0
2014-Apr-25 01:06 251 -0.6
2014-Apr-25 00:56 251 -0.0
2014-Apr-24 23:26 251 0.6
2014-Apr-24 23:16 251 0.6
2014-Apr-24 23:06 251 0.6
2014-Apr-24 22:56 251 1.1
2014-Apr-24 22:46 251 1.1
2014-Apr-24 22:36 251 1.7
2014-Apr-24 22:26 251 1.7
2014-Apr-24 22:16 251 1.7
2014-Apr-24 22:06 251 1.7
2014-Apr-24 21:56 251 1.7
2014-Apr-24 21:46 251 1.7
2014-Apr-24 21:36 251 1.7
2014-Apr-24 21:26 251 2.2
2014-Apr-24 21:16 251 2.8
2014-Apr-24 21:06 251 2.8
2014-Apr-24 20:56 251 3.3
2014-Apr-24 20:46 251 3.3
2014-Apr-24 20:36 251 3.9
2014-Apr-24 20:26 251 4.4
2014-Apr-24 20:16 251 4.4
2014-Apr-24 20:06 251 5.0
2014-Apr-24 19:56 251 5.0
2014-Apr-24 19:46 251 5.6
2014-Apr-24 19:36 251 5.6
2014-Apr-24 19:26 251 6.1
2014-Apr-24 19:16 251 6.1
2014-Apr-24 19:06 251 6.7
2014-Apr-24 18:56 251 6.7
2014-Apr-24 18:46 251 7.2
2014-Apr-24 18:36 251 7.2
2014-Apr-24 18:26 251 7.8
2014-Apr-24 18:16 251 8.3
2014-Apr-24 18:06 251 8.3
2014-Apr-24 17:56 253 8.3
2014-Apr-24 17:46 253 8.9
2014-Apr-24 17:36 252 9.4
2014-Apr-24 17:26 253 10.0
2014-Apr-24 17:16 252 0 gusting 4 10.0
2014-Apr-24 17:06 253 11.1
2014-Apr-24 16:56 242 0 gusting 5 11.1
2014-Apr-24 16:46 243 1 gusting 6 11.7
2014-Apr-24 16:36 240 12.2
2014-Apr-24 16:26 251 1 gusting 7 12.2
2014-Apr-24 16:16 227 0 gusting 8 12.2
2014-Apr-24 16:06 227 0 gusting 7 12.2
2014-Apr-24 15:56 275 1 gusting 6 12.8
2014-Apr-24 15:46 193 12.8
2014-Apr-24 15:36 185 1 gusting 5 12.8
2014-Apr-24 15:26 155 0 gusting 2 13.9
2014-Apr-24 15:16 144 13.9
2014-Apr-24 15:06 144 13.9
2014-Apr-24 14:56 144 13.9
2014-Apr-24 14:46 144 13.3
2014-Apr-24 14:36 144 13.3
2014-Apr-24 14:26 144 12.8
2014-Apr-24 14:06 144 13.3
2014-Apr-24 13:56 144 13.3
2014-Apr-24 13:36 144 13.3
2014-Apr-24 13:26 144 12.8
2014-Apr-24 13:16 144 12.8
2014-Apr-24 13:06 144 12.8
2014-Apr-24 12:46 144 12.8
2014-Apr-24 12:36 143 13.3
2014-Apr-24 12:26 143 12.8
2014-Apr-24 12:16 143 1 gusting 5 12.8
2014-Apr-24 12:06 143 1 gusting 4 12.8
2014-Apr-24 11:56 143 1 gusting 5 12.8
2014-Apr-24 11:46 140 0 gusting 4 12.8
2014-Apr-24 11:36 136 0 gusting 4 12.8
2014-Apr-24 11:26 136 0 gusting 4 12.8
2014-Apr-24 11:16 136 0 gusting 4 12.8
2014-Apr-24 11:06 136 0 gusting 2 12.2
2014-Apr-24 10:56 136 1 gusting 5 11.7
2014-Apr-24 10:46 136 2 gusting 7 11.7
2014-Apr-24 10:36 126 2 gusting 7 11.7
2014-Apr-24 10:26 129 1 gusting 6 11.1
2014-Apr-24 10:16 127 1 gusting 5 11.1
2014-Apr-24 10:06 126 3 gusting 6 11.1
2014-Apr-24 09:56 133 2 gusting 6 10.6
2014-Apr-24 09:46 131 2 gusting 7 10.6
2014-Apr-24 09:36 131 2 gusting 6 10.6
2014-Apr-24 09:26 131 3 gusting 6 10.6
2014-Apr-24 09:16 132 10.0
2014-Apr-24 09:06 134 1 gusting 4 9.4
2014-Apr-24 08:56 132 1 gusting 2 9.4
2014-Apr-24 08:46 132 1 gusting 5 8.9
2014-Apr-24 08:36 133 1 gusting 4 8.9
2014-Apr-24 08:26 133 8.9
2014-Apr-24 08:16 133 8.3
2014-Apr-24 08:06 133 0 gusting 5 7.8
2014-Apr-24 07:56 133 0 gusting 4 7.8
2014-Apr-24 07:46 133 2 gusting 6 7.2
2014-Apr-24 07:36 145 6.7
2014-Apr-24 07:26 145 6.7
2014-Apr-24 07:16 145 6.1
2014-Apr-24 07:06 145 5.6
2014-Apr-24 06:56 148 1 gusting 2 5.0
2014-Apr-24 06:46 297 4.4
2014-Apr-24 06:36 297 3.9
2014-Apr-24 06:26 297 3.3
2014-Apr-24 06:16 297 2.8
2014-Apr-24 06:06 297 2.8
2014-Apr-24 05:56 297 2.2
2014-Apr-24 05:46 297 1.7
2014-Apr-24 05:36 297 1.7
2014-Apr-24 05:26 297 1.1
2014-Apr-24 05:16 297 1.1
2014-Apr-24 05:06 297 1.1
2014-Apr-24 04:56 297 0.6
2014-Apr-24 04:46 297 0.6
2014-Apr-24 04:36 297 0.6
2014-Apr-24 04:26 299 -0.0
2014-Apr-24 04:16 298 -0.0
2014-Apr-24 04:06 298 -0.6
2014-Apr-24 03:56 298 -0.6
2014-Apr-24 03:46 298 -0.6
2014-Apr-24 03:36 298 -0.0
2014-Apr-24 03:26 302 -0.0
2014-Apr-24 03:16 291 0.6
2014-Apr-24 03:06 286 1.1
2014-Apr-24 02:56 006 1.1
2014-Apr-24 02:46 034 0.6
2014-Apr-24 02:36 333 0.6
2014-Apr-24 02:26 064 1.1
2014-Apr-24 02:16 036 1 gusting 10 1.7
2014-Apr-24 02:06 055 3 gusting 12 1.7
2014-Apr-24 01:56 088 1 gusting 10 1.7
2014-Apr-24 01:46 106 2 gusting 6 1.7
2014-Apr-24 01:36 090 0 gusting 12 1.7
2014-Apr-24 01:26 097 4 gusting 10 1.1
2014-Apr-24 01:16 090 2 gusting 7 1.1
2014-Apr-24 01:06 073 1 gusting 6 1.1
2014-Apr-24 00:56 101 1 gusting 6 1.7
2014-Apr-24 00:46 082 0 gusting 6 1.7
2014-Apr-24 00:36 095 3 gusting 10 1.7
2014-Apr-24 00:26 108 2 gusting 8 1.7
2014-Apr-24 00:16 077 1 gusting 10 1.7
2014-Apr-24 00:06 099 1 gusting 7 2.2
2014-Apr-23 23:56 111 2 gusting 11 2.2
2014-Apr-23 23:46 102 4 gusting 13 1.7
2014-Apr-23 23:36 101 4 gusting 8 1.7
2014-Apr-23 23:19 089 0 gusting 7 2.2
2014-Apr-23 23:09 076 1 gusting 6 2.2
2014-Apr-23 22:59 076 1 gusting 7 2.2
2014-Apr-23 22:49 088 2 gusting 8 2.2
2014-Apr-23 22:39 085 2 gusting 10 1.7
2014-Apr-23 22:29 071 1 gusting 5 1.7
2014-Apr-23 22:19 040 1.7
2014-Apr-23 22:09 044 2 gusting 5 1.7
2014-Apr-23 21:59 053 2.2
2014-Apr-23 21:49 052 1 gusting 6 2.2
2014-Apr-23 21:39 086 0 gusting 6 2.2
2014-Apr-23 21:26 098 0 gusting 6 2.2
2014-Apr-23 21:16 080 1 gusting 5 2.2
2014-Apr-23 21:06 111 2.8
2014-Apr-23 20:56 111 0 gusting 8 2.8
2014-Apr-23 20:46 122 5 gusting 13 3.3
2014-Apr-23 20:36 128 6 gusting 12 3.3
2014-Apr-23 20:26 123 5 gusting 10 3.3
2014-Apr-23 20:16 116 6 gusting 11 3.3
2014-Apr-23 20:06 119 6 gusting 13 3.3
2014-Apr-23 19:56 110 5 gusting 10 3.3
2014-Apr-23 19:46 105 2 gusting 8 3.3
2014-Apr-23 19:36 113 2 gusting 10 3.9
2014-Apr-23 19:26 112 6 gusting 10 3.9
2014-Apr-23 19:16 116 3 gusting 8 3.9
2014-Apr-23 19:06 116 2 gusting 10 3.9
2014-Apr-23 18:56 111 1 gusting 7 3.9
2014-Apr-23 18:46 111 4 gusting 8 4.4
2014-Apr-23 18:36 105 5 gusting 8 4.4
2014-Apr-23 18:26 112 4 gusting 8 4.4
2014-Apr-23 18:16 113 2 gusting 8 5.0
2014-Apr-23 18:06 111 6 gusting 8 5.0
2014-Apr-23 17:56 109 5 gusting 11 5.0
2014-Apr-23 17:46 108 5 gusting 10 5.0
2014-Apr-23 17:36 101 4 gusting 7 5.0
2014-Apr-23 17:26 090 3 gusting 7 5.6
2014-Apr-23 17:16 107 5 gusting 10 6.1
2014-Apr-23 17:06 111 4 gusting 11 6.1
2014-Apr-23 16:56 113 5 gusting 11 6.7
2014-Apr-23 16:46 121 5 gusting 10 6.7
2014-Apr-23 16:36 119 3 gusting 8 6.7
2014-Apr-23 16:26 119 5 gusting 10 7.2
2014-Apr-23 16:16 105 3 gusting 11 7.2
2014-Apr-23 16:06 126 4 gusting 8 7.2
2014-Apr-23 15:56 130 4 gusting 8 7.2
2014-Apr-23 15:46 124 6 gusting 10 7.2
2014-Apr-23 15:36 133 4 gusting 8 6.7
2014-Apr-23 15:26 129 1 gusting 10 6.7
2014-Apr-23 15:16 135 5 gusting 10 6.7
2014-Apr-23 15:06 128 2 gusting 10 7.2
2014-Apr-23 14:56 123 4 gusting 10 7.2
2014-Apr-23 14:46 137 3 gusting 8 7.8
2014-Apr-23 14:36 121 5 gusting 8 7.8
2014-Apr-23 14:26 128 4 gusting 8 7.8
2014-Apr-23 14:16 176 0 gusting 4 7.8
2014-Apr-23 14:06 154 7.8
2014-Apr-23 13:56 148 0 gusting 2 7.8
2014-Apr-23 13:46 141 1 gusting 2 7.8
2014-Apr-23 13:36 141 0 gusting 2 7.8
2014-Apr-23 13:26 141 0 gusting 4 7.8
2014-Apr-23 13:16 142 1 gusting 4 7.8
2014-Apr-23 13:06 115 0 gusting 2 7.8
2014-Apr-23 12:56 130 1 gusting 6 8.3
2014-Apr-23 12:46 043 1 gusting 6 7.8
2014-Apr-23 12:36 081 1 gusting 7 7.2
2014-Apr-23 12:26 044 4 gusting 8 7.8
2014-Apr-23 12:16 056 4 gusting 11 8.3
2014-Apr-23 12:06 086 1 gusting 6 8.3
2014-Apr-23 11:56 061 3 gusting 7 7.8
2014-Apr-23 11:46 139 1 gusting 5 7.2
2014-Apr-23 11:36 194 1 gusting 5 6.7
2014-Apr-23 11:26 194 0 gusting 5 7.2
2014-Apr-23 11:16 194 1 gusting 5 6.7
2014-Apr-23 11:06 193 1 gusting 6 6.1
2014-Apr-23 10:56 198 0 gusting 6 6.1
2014-Apr-23 10:46 202 0 gusting 4 6.1
2014-Apr-23 10:36 196 1 gusting 5 5.6
2014-Apr-23 10:26 198 1 gusting 5 6.1
2014-Apr-23 10:16 194 1 gusting 6 5.6
2014-Apr-23 10:06 197 1 gusting 5 6.1
2014-Apr-23 09:56 196 1 gusting 4 5.6
2014-Apr-23 09:46 196 5.6
2014-Apr-23 09:36 196 5.0
2014-Apr-23 09:26 196 0 gusting 2 5.0
2014-Apr-23 09:16 196 0 gusting 1 5.0
2014-Apr-23 09:06 196 5.0
2014-Apr-23 08:56 198 2 gusting 5 5.0
2014-Apr-23 08:46 202 1 gusting 4 5.6
2014-Apr-23 08:36 202 0 gusting 4 5.0
2014-Apr-23 08:26 200 0 gusting 4 4.4
2014-Apr-23 08:16 203 0 gusting 2 4.4
2014-Apr-23 08:06 204 0 gusting 2 5.0
2014-Apr-23 07:56 205 0 gusting 4 5.0
2014-Apr-23 07:46 244 4.4
2014-Apr-23 07:36 252 4.4
2014-Apr-23 07:26 265 3.9
2014-Apr-23 07:16 268 0 gusting 2 3.3
2014-Apr-23 07:06 270 3.3
2014-Apr-23 06:56 270 3.3
2014-Apr-23 06:46 270 2.8
2014-Apr-23 06:36 270 2.8
2014-Apr-23 06:26 270 2.2
2014-Apr-23 06:16 270 2.2
2014-Apr-23 06:06 270 1.7